When you browse on this site, cookies collect data to enhance your experience and personalize the content and advertising you see.
Visit our Privacy Policy to learn more. By continuing to use the site, you agree to this use of cookies and data.
  • In Belgien
  • Länderverzeichnis
  • Für 7 Tage
  • Wassertemperatur
  • Wetterkarte
  • Widgets
  • user-avatar
    Anmelden

    Stündliche Wetter Shlobin

    Heute, 31 Mai, Sonntag

    Zeit Temperatur Niederschläge Wind Luftdruck Luftfeuchtigkeit
    00:00 +11°C° 0 mm 3 m/S 740 mmHg 96%
    01:00 +11°C° 0 mm 3 m/S 740 mmHg 97%
    02:00 +10°C° 0 mm 2 m/S 740 mmHg 97%
    03:00 +10°C° 0 mm 2 m/S 741 mmHg 97%
    04:00 +12°C° 0 mm 2 m/S 741 mmHg 96%
    05:00 +12°C° 0 mm 2 m/S 741 mmHg 96%
    06:00 +13°C° 0 mm 2 m/S 741 mmHg 94%
    07:00 +13°C° 0 mm 3 m/S 742 mmHg 91%
    08:00 +14°C° 0 mm 3 m/S 742 mmHg 89%
    09:00 +16°C° 0.3 mm 3 m/S 742 mmHg 86%
    10:00 +15°C° 0.3 mm 4 m/S 743 mmHg 83%
    11:00 +17°C° 0.3 mm 4 m/S 743 mmHg 79%
    12:00 +17°C° 0.2 mm 4 m/S 743 mmHg 77%
    13:00 +18°C° 0.2 mm 3 m/S 744 mmHg 74%
    14:00 +18°C° 0.2 mm 3 m/S 744 mmHg 71%
    15:00 +18°C° 0.4 mm 4 m/S 744 mmHg 74%
    16:00 +17°C° 0.4 mm 4 m/S 744 mmHg 78%
    17:00 +15°C° 0.4 mm 5 m/S 745 mmHg 81%
    18:00 +14°C° 0.4 mm 6 m/S 745 mmHg 85%
    19:00 +13°C° 0.4 mm 6 m/S 745 mmHg 88%
    20:00 +10°C° 0.4 mm 6 m/S 746 mmHg 92%
    21:00 +10°C° 0 mm 5 m/S 746 mmHg 92%
    22:00 +9°C° 0 mm 5 m/S 746 mmHg 92%
    23:00 +8°C° 0 mm 4 m/S 746 mmHg 92%

    Morgen, 1 Juni, Montag

    Zeit Temperatur Niederschläge Wind Luftdruck Luftfeuchtigkeit
    00:00 +8°C° 0 mm 5 m/S 747 mmHg 92%
    01:00 +7°C° 0 mm 5 m/S 747 mmHg 91%
    02:00 +7°C° 0 mm 5 m/S 747 mmHg 91%
    03:00 +6°C° 0 mm 5 m/S 747 mmHg 90%
    04:00 +6°C° 0 mm 5 m/S 747 mmHg 89%
    05:00 +5°C° 0 mm 6 m/S 747 mmHg 88%
    06:00 +7°C° 0 mm 6 m/S 747 mmHg 82%
    07:00 +8°C° 0 mm 7 m/S 748 mmHg 77%
    08:00 +9°C° 0 mm 7 m/S 748 mmHg 71%
    09:00 +9°C° 0.1 mm 7 m/S 748 mmHg 69%
    10:00 +10°C° 0.1 mm 7 m/S 748 mmHg 66%
    11:00 +11°C° 0.1 mm 7 m/S 748 mmHg 63%
    12:00 +11°C° 0.2 mm 7 m/S 748 mmHg 63%
    13:00 +11°C° 0.2 mm 7 m/S 748 mmHg 63%
    14:00 +12°C° 0.2 mm 7 m/S 747 mmHg 63%
    15:00 +11°C° 0.3 mm 7 m/S 747 mmHg 65%
    16:00 +11°C° 0.3 mm 7 m/S 747 mmHg 68%
    17:00 +10°C° 0.3 mm 6 m/S 747 mmHg 71%
    18:00 +9°C° 0.2 mm 6 m/S 747 mmHg 77%
    19:00 +8°C° 0.2 mm 5 m/S 747 mmHg 84%
    20:00 +7°C° 0.2 mm 4 m/S 747 mmHg 90%
    21:00 +7°C° 0.3 mm 5 m/S 747 mmHg 91%
    22:00 +7°C° 0.3 mm 5 m/S 746 mmHg 92%
    23:00 +7°C° 0.3 mm 5 m/S 746 mmHg 93%

    übermorgen, 2 Juni, Dienstag

    Zeit Temperatur Niederschläge Wind Luftdruck Luftfeuchtigkeit
    00:00 +7°C° 0.1 mm 5 m/S 746 mmHg 93%
    01:00 +7°C° 0.1 mm 6 m/S 745 mmHg 92%
    02:00 +7°C° 0.1 mm 6 m/S 744 mmHg 92%
    03:00 +7°C° 0.1 mm 6 m/S 744 mmHg 93%
    04:00 +7°C° 0.1 mm 6 m/S 743 mmHg 93%
    05:00 +7°C° 0.1 mm 6 m/S 743 mmHg 94%
    06:00 +7°C° 0.8 mm 6 m/S 742 mmHg 94%
    07:00 +6°C° 0.8 mm 7 m/S 742 mmHg 94%
    08:00 +6°C° 0.8 mm 7 m/S 741 mmHg 95%
    09:00 +7°C° 1.1 mm 6 m/S 741 mmHg 95%
    10:00 +8°C° 1.1 mm 6 m/S 741 mmHg 95%
    11:00 +8°C° 1.1 mm 6 m/S 741 mmHg 95%
    12:00 +8°C° 0.2 mm 5 m/S 740 mmHg 94%
    13:00 +9°C° 0.2 mm 5 m/S 740 mmHg 93%
    14:00 +9°C° 0.2 mm 5 m/S 740 mmHg 92%
    15:00 +11°C° 0.1 mm 4 m/S 740 mmHg 89%
    16:00 +12°C° 0.1 mm 3 m/S 739 mmHg 87%
    17:00 +13°C° 0.1 mm 3 m/S 739 mmHg 85%
    18:00 +12°C° 0.2 mm 3 m/S 739 mmHg 87%
    19:00 +11°C° 0.2 mm 3 m/S 739 mmHg 90%
    20:00 +10°C° 0.2 mm 3 m/S 739 mmHg 92%
    21:00 +9°C° 0 mm 3 m/S 739 mmHg 94%
    22:00 +8°C° 0 mm 3 m/S 739 mmHg 95%
    23:00 +7°C° 0 mm 3 m/S 739 mmHg 96%

    3 Juni, Mittwoch

    Zeit Temperatur Niederschläge Wind Luftdruck Luftfeuchtigkeit
    00:00 +7°C° 0 mm 3 m/S 739 mmHg 96%
    01:00 +7°C° 0 mm 3 m/S 739 mmHg 96%
    02:00 +5°C° 0 mm 3 m/S 739 mmHg 96%
    03:00 +5°C° 0 mm 4 m/S 740 mmHg 96%
    04:00 +5°C° 0 mm 4 m/S 740 mmHg 96%
    05:00 +5°C° 0 mm 4 m/S 740 mmHg 96%
    06:00 +6°C° 0 mm 4 m/S 740 mmHg 93%
    07:00 +7°C° 0 mm 4 m/S 740 mmHg 91%
    08:00 +9°C° 0 mm 5 m/S 740 mmHg 88%
    09:00 +10°C° 0.3 mm 5 m/S 740 mmHg 85%
    10:00 +12°C° 0.3 mm 5 m/S 740 mmHg 82%
    11:00 +13°C° 0.3 mm 6 m/S 741 mmHg 79%
    12:00 +13°C° 0.5 mm 6 m/S 740 mmHg 77%
    13:00 +14°C° 0.5 mm 6 m/S 740 mmHg 75%
    14:00 +15°C° 0.5 mm 5 m/S 740 mmHg 74%
    15:00 +14°C° 0.5 mm 5 m/S 740 mmHg 77%
    16:00 +14°C° 0.5 mm 5 m/S 740 mmHg 79%
    17:00 +14°C° 0.5 mm 5 m/S 740 mmHg 82%
    18:00 +13°C° 0.4 mm 5 m/S 740 mmHg 85%
    19:00 +12°C° 0.4 mm 4 m/S 740 mmHg 88%
    20:00 +11°C° 0.4 mm 4 m/S 740 mmHg 92%
    21:00 +10°C° 0 mm 4 m/S 740 mmHg 93%
    22:00 +10°C° 0 mm 4 m/S 740 mmHg 94%
    23:00 +8°C° 0 mm 4 m/S 741 mmHg 96%

    4 Juni, Donnerstag

    Zeit Temperatur Niederschläge Wind Luftdruck Luftfeuchtigkeit
    00:00 +8°C° 0 mm 4 m/S 741 mmHg 96%
    01:00 +8°C° 0 mm 4 m/S 741 mmHg 97%
    02:00 +8°C° 0 mm 3 m/S 741 mmHg 98%
    03:00 +9°C° 0 mm 3 m/S 741 mmHg 97%
    04:00 +8°C° 0 mm 4 m/S 741 mmHg 96%
    05:00 +8°C° 0 mm 4 m/S 741 mmHg 96%
    06:00 +10°C° 0 mm 4 m/S 742 mmHg 94%
    07:00 +10°C° 0 mm 4 m/S 742 mmHg 93%
    08:00 +10°C° 0 mm 4 m/S 742 mmHg 92%
    09:00 +11°C° 0.1 mm 4 m/S 742 mmHg 89%
    10:00 +12°C° 0.1 mm 3 m/S 742 mmHg 86%
    11:00 +13°C° 0.1 mm 3 m/S 742 mmHg 83%
    12:00 +14°C° 0.7 mm 3 m/S 742 mmHg 80%
    13:00 +14°C° 0.7 mm 3 m/S 742 mmHg 78%
    14:00 +16°C° 0.7 mm 2 m/S 742 mmHg 76%
    15:00 +16°C° 0.7 mm 2 m/S 742 mmHg 78%
    16:00 +16°C° 0.7 mm 3 m/S 741 mmHg 80%
    17:00 +14°C° 0.7 mm 3 m/S 741 mmHg 81%
    18:00 +14°C° 0.4 mm 2 m/S 741 mmHg 85%
    19:00 +13°C° 0.4 mm 2 m/S 741 mmHg 89%
    20:00 +12°C° 0.4 mm 2 m/S 741 mmHg 93%
    21:00 +10°C° 0 mm 2 m/S 741 mmHg 94%
    22:00 +9°C° 0 mm 2 m/S 741 mmHg 94%
    23:00 +8°C° 0 mm 2 m/S 741 mmHg 95%

    5 Juni, Freitag

    Zeit Temperatur Niederschläge Wind Luftdruck Luftfeuchtigkeit
    00:00 +8°C° 0 mm 2 m/S 741 mmHg 95%
    01:00 +8°C° 0 mm 2 m/S 741 mmHg 96%
    02:00 +7°C° 0 mm 2 m/S 741 mmHg 96%
    03:00 +7°C° 0 mm 2 m/S 741 mmHg 97%
    04:00 +7°C° 0 mm 2 m/S 741 mmHg 97%
    05:00 +8°C° 0 mm 2 m/S 741 mmHg 98%
    06:00 +9°C° 0 mm 2 m/S 741 mmHg 94%
    07:00 +11°C° 0 mm 3 m/S 741 mmHg 91%
    08:00 +13°C° 0 mm 3 m/S 741 mmHg 87%
    09:00 +14°C° 0.4 mm 3 m/S 741 mmHg 83%
    10:00 +16°C° 0.4 mm 3 m/S 741 mmHg 79%
    11:00 +17°C° 0.4 mm 3 m/S 741 mmHg 75%
    12:00 +18°C° 0.5 mm 3 m/S 741 mmHg 72%
    13:00 +19°C° 0.5 mm 3 m/S 741 mmHg 69%
    14:00 +19°C° 0.5 mm 3 m/S 741 mmHg 67%
    15:00 +19°C° 0.3 mm 3 m/S 741 mmHg 68%
    16:00 +19°C° 0.3 mm 3 m/S 741 mmHg 69%
    17:00 +19°C° 0.3 mm 2 m/S 741 mmHg 71%
    18:00 +18°C° 0.1 mm 2 m/S 741 mmHg 76%
    19:00 +16°C° 0.1 mm 2 m/S 741 mmHg 82%
    20:00 +15°C° 0.1 mm 1 m/S 741 mmHg 87%
    21:00 +14°C° 0 mm 1 m/S 741 mmHg 89%
    22:00 +13°C° 0 mm 2 m/S 742 mmHg 90%
    23:00 +13°C° 0 mm 2 m/S 742 mmHg 92%
    Mehr zeigen